Date String (YYYY-MM-DD hh:mm:ss) UTC,Instrument flags,Ambient pressure (hPa),Sample flow (lpm),Bypass flow (lpm),Sample temperature (°C),Ambient temperature (°C),ASC tube jacket temperature (°C),LED temperature (°C),Box temperature (°C),Sample RH (%),Span deviation,Mass concentration (μg/m³),Mass concentration (μg/m³),Mass concentration (μg/m³)
DateTimeUTC,F1_M11,P_M11,Q1_M11,Q2_M11,T1_M11,T2_M11,T3_M11,T4_M11,T5_M11,U1_M11,ZSPAN_M11,X0_M11,X2_M11,X1_M11
2023-04-24 13:00:00,,0825.9,4.98,0.00,22.0,20.5,00.0,30.5,23.6,16.0,0001.4,0010.78,0007.66,0007.10
2023-04-24 13:01:00,,0826.0,5.00,0.00,22.1,21.3,00.0,30.4,24.0,16.0,0002.5,0010.69,0007.66,0007.11
2023-04-24 13:02:00,,0826.0,5.00,0.00,22.2,22.4,00.0,30.4,24.3,16.0,0002.4,0011.25,0007.71,0007.11
2023-04-24 13:03:00,,0826.0,5.00,0.00,22.4,23.0,00.0,30.5,24.5,15.8,0002.9,0011.26,0007.68,0007.10
2023-04-24 13:04:00,,0826.0,4.99,0.00,22.4,22.8,00.0,30.6,24.3,15.8,0001.9,0011.49,0007.66,0007.10
2023-04-24 13:05:00,,0826.0,5.00,0.00,22.4,22.5,00.0,30.6,24.2,15.6,0001.4,0011.48,0007.67,0007.12
2023-04-24 13:06:00,,0826.0,5.00,0.00,22.4,22.1,00.0,30.7,24.1,15.7,0001.6,0011.60,0007.72,0007.13
2023-04-24 13:07:00,,0825.9,5.00,0.00,22.4,21.8,00.0,30.7,24.0,15.6,0002.0,0011.69,0007.75,0007.13
2023-04-24 13:08:00,,0825.9,5.00,0.00,22.4,21.5,00.0,30.7,24.0,15.7,0002.3,0011.87,0007.76,0007.14
2023-04-24 13:09:00,,0825.9,5.00,0.00,22.4,21.3,00.0,30.7,23.9,15.7,0002.5,0012.04,0007.74,0007.14
2023-04-24 13:10:00,,0826.0,4.99,0.00,22.4,21.2,00.0,30.7,23.9,15.7,0002.8,0012.11,0007.79,0007.17
2023-04-24 13:11:00,,0826.0,5.00,0.00,22.3,21.1,00.0,30.7,23.9,15.8,0002.6,0012.08,0007.77,0007.17
2023-04-24 13:12:00,,0826.0,5.00,0.00,22.3,21.0,00.0,30.7,23.9,15.7,0002.3,0012.02,0007.76,0007.17
2023-04-24 13:13:00,,0826.0,5.01,0.00,22.3,21.0,00.0,30.7,23.9,15.7,0002.5,0012.19,0007.74,0007.18
2023-04-24 13:14:00,,0826.0,5.00,0.00,22.3,20.9,00.0,30.7,23.9,15.8,0002.1,0012.66,0007.75,0007.18
2023-04-24 13:15:00,,0825.9,5.00,0.00,22.3,20.9,00.0,30.8,23.9,15.7,0002.9,0012.50,0007.77,0007.20
2023-04-24 13:16:00,,0825.9,5.00,0.00,22.3,21.0,00.0,30.8,23.9,15.8,0002.6,0012.58,0007.78,0007.19
2023-04-24 13:17:00,,0825.9,5.00,0.00,22.4,21.0,00.0,30.8,24.0,15.9,0003.1,0013.18,0007.80,0007.19
2023-04-24 13:18:00,,0825.9,5.00,0.00,22.4,21.0,00.0,30.8,24.0,15.8,0002.7,0013.19,0007.80,0007.20
2023-04-24 13:19:00,,0826.0,4.99,0.00,22.4,21.0,00.0,30.8,24.0,15.9,0002.9,0013.01,0007.78,0007.20
2023-04-24 13:20:00,,0826.0,5.00,0.00,22.4,21.0,00.0,30.8,24.0,16.4,0003.5,0012.82,0007.78,0007.20
2023-04-24 13:21:00,,0826.0,5.01,0.00,22.4,21.0,00.0,30.8,23.9,16.9,0003.5,0012.84,0007.76,0007.16
2023-04-24 13:22:00,,0826.0,5.01,0.00,22.4,21.0,00.0,30.8,24.0,16.7,0003.3,0012.86,0007.77,0007.15
2023-04-24 13:23:00,,0826.0,5.01,0.00,22.4,21.0,00.0,30.8,24.0,16.1,0002.4,0012.87,0007.78,0007.16
2023-04-24 13:24:00,,0826.0,4.99,0.00,22.4,21.0,00.0,30.8,24.0,15.8,0001.0,0012.37,0007.80,0007.16
2023-04-24 13:25:00,,0826.0,4.99,0.00,22.4,20.9,00.0,30.8,23.9,15.5,0001.6,0011.84,0007.80,0007.17
2023-04-24 13:26:00,,0826.0,5.01,0.00,22.3,20.8,00.0,30.8,23.9,15.4,0002.4,0011.63,0007.83,0007.18
2023-04-24 13:27:00,,0826.0,5.00,0.00,22.3,20.8,00.0,30.7,23.8,15.4,0002.1,0011.57,0007.81,0007.18
2023-04-24 13:28:00,,0826.0,5.01,0.00,22.3,20.7,00.0,30.7,23.8,15.4,0002.2,0010.94,0007.74,0007.17
2023-04-24 13:29:00,,0826.0,5.00,0.00,22.3,20.7,00.0,30.7,23.8,15.5,0002.7,0010.88,0007.76,0007.19
2023-04-24 13:30:00,,0826.0,5.00,0.00,22.2,20.6,00.0,30.7,23.7,15.6,0003.2,0010.98,0007.79,0007.19
2023-04-24 13:31:00,,0825.9,5.00,0.00,22.2,20.6,00.0,30.7,23.7,15.6,0003.7,0011.08,0007.81,0007.20
2023-04-24 13:32:00,,0825.9,4.99,0.00,22.2,20.6,00.0,30.7,23.7,15.4,0004.0,0011.04,0007.82,0007.21
2023-04-24 13:33:00,,0825.9,4.99,0.00,22.2,20.5,00.0,30.7,23.6,15.5,0003.7,0011.03,0007.82,0007.22
2023-04-24 13:34:00,,0825.9,4.99,0.00,22.1,20.5,00.0,30.7,23.6,15.4,0004.0,0011.22,0007.85,0007.23
2023-04-24 13:35:00,,0825.9,5.00,0.00,22.1,20.4,00.0,30.7,23.5,15.4,0004.7,0011.50,0007.81,0007.21
2023-04-24 13:36:00,,0825.9,5.02,0.00,22.1,20.3,00.0,30.6,23.5,15.6,0004.8,0011.86,0007.78,0007.19
2023-04-24 13:37:00,,0825.9,5.01,0.00,22.0,20.3,00.0,30.6,23.5,15.8,0003.8,0011.82,0007.75,0007.19
2023-04-24 13:38:00,,0825.9,4.99,0.00,22.0,20.3,00.0,30.6,23.5,16.1,0003.7,0011.87,0007.73,0007.18
2023-04-24 13:39:00,,0825.9,4.99,0.00,22.0,20.3,00.0,30.6,23.5,15.9,0004.5,0012.30,0007.76,0007.19
2023-04-24 13:40:00,,0825.9,4.99,0.00,22.0,20.3,00.0,30.6,23.5,15.6,0004.3,0012.30,0007.73,0007.17
2023-04-24 13:41:00,,0825.9,5.01,0.00,22.0,20.7,00.0,30.5,23.7,15.9,0004.0,0012.20,0007.70,0007.16
2023-04-24 13:42:00,,0826.0,5.00,0.00,22.2,21.8,00.0,30.4,24.1,16.0,0003.3,0012.18,0007.69,0007.14
2023-04-24 13:43:00,,0826.0,4.99,0.00,22.3,22.9,00.0,30.5,24.4,16.1,0002.9,0012.15,0007.68,0007.13
2023-04-24 13:44:00,,0826.0,5.00,0.00,22.4,23.0,00.0,30.6,24.4,16.0,0003.4,0012.21,0007.70,0007.13
2023-04-24 13:45:00,,0826.0,4.99,0.00,22.4,22.7,00.0,30.6,24.3,15.7,0003.4,0012.17,0007.67,0007.11
2023-04-24 13:46:00,,0826.0,5.00,0.00,22.4,22.3,00.0,30.7,24.2,15.8,0003.2,0011.77,0007.69,0007.10
2023-04-24 13:47:00,,0826.0,5.00,0.00,22.4,22.0,00.0,30.7,24.1,15.8,0002.9,0011.73,0007.77,0007.10
2023-04-24 13:48:00,,0826.0,5.00,0.00,22.4,21.7,00.0,30.7,24.0,15.7,0003.1,0011.75,0007.81,0007.10
2023-04-24 13:49:00,,0826.0,5.00,0.00,22.4,21.5,00.0,30.7,24.0,15.6,0003.4,0011.72,0007.81,0007.08
2023-04-24 13:50:00,,0826.0,5.00,0.00,22.4,21.3,00.0,30.7,23.9,15.6,0002.9,0011.38,0007.80,0007.06
2023-04-24 13:51:00,,0825.9,4.99,0.00,22.3,21.1,00.0,30.7,23.9,15.7,0002.6,0011.25,0007.77,0007.05
2023-04-24 13:52:00,,0825.9,5.01,0.00,22.3,21.0,00.0,30.7,23.9,15.4,0002.7,0011.33,0007.75,0007.05
2023-04-24 13:53:00,,0825.9,5.01,0.00,22.3,20.9,00.0,30.7,23.8,15.6,0004.1,0011.91,0007.76,0007.05
2023-04-24 13:54:00,,0826.0,5.01,0.00,22.3,20.8,00.0,30.7,23.8,15.8,0004.2,0011.93,0007.78,0007.04
2023-04-24 13:55:00,,0825.9,4.99,0.00,22.3,20.8,00.0,30.7,23.8,15.7,0003.4,0011.90,0007.76,0007.02
2023-04-24 13:56:00,,0825.9,4.99,0.00,22.2,20.7,00.0,30.7,23.8,15.6,0002.9,0011.84,0007.74,0007.02
2023-04-24 13:57:00,,0825.9,4.99,0.00,22.2,20.7,00.0,30.7,23.8,15.7,0001.7,0012.25,0007.73,0007.02
2023-04-24 13:58:00,,0826.0,5.00,0.00,22.2,20.7,00.0,30.7,23.8,15.7,0002.5,0012.32,0007.64,0007.00
2023-04-24 13:59:00,,0826.0,5.01,0.00,22.2,20.7,00.0,30.7,23.8,15.5,0001.2,0012.51,0007.59,0006.98
